Tracking 18856 objects as of 11-Dec-2017
HD Live streaming from Space Station
objects crossing your sky now

CZ-3C R/B

Track CZ-3C R/B now!
10-day predictions


NORAD ID: 36591
Int'l Code: 2010-024B
Perigee: 227.3 km
Apogee: 17,233.2 km
Inclination: 20.7 °
Period: 307.8 minutes
Semi major axis: 15101 km
RCS: 15.0139 m2 (large)
Launch date: June 2, 2010
Source: People's Republic of China (PRC)
Launch site: Xichang Space Center, China (XSC)

Note: This is a ROCKET BODY
aabbcc
Your satellite tracking list
Your tracking list is empty




NASA's NSSDC Master Catalog

Two Line Element Set (TLE):
1 36591U 10024B   17345.35349709  .00009332  00000-0  41374-3 0  9990
2 36591  20.7206  82.7984 5630627 261.7459  34.1747  4.67823793 95014
Source of the keplerian elements: AFSPC